Weather History for Pauls Valley, OK

Change the Weather History Date:

Saturday, March 23, 2013

  Actual Average (KADH) Record (KADH)
Temperature  
Mean Temperature 40 °F -  
Max Temperature 44 °F 67 °F 89 °F (1910)
Min Temperature 37 °F 41 °F 20 °F (1952)
Degree Days  
Heating Degree Days 24    
Moisture  
Dew Point 40 °F    
Average Humidity 91    
Maximum Humidity 100    
Minimum Humidity 81    
Precipitation  
Precipitation 0.01 in - - ()
Sea Level Pressure  
Sea Level Pressure 29.80 in    
Wind  
Wind Speed 8 mph (NE)    
Max Wind Speed 20 mph    
Max Gust Speed 26 mph    
Visibility 6 miles    
Events Rain , Thunderstorm    
Averages and records for this station are not official NWS values.
T = Trace of Precipitation, MM = Missing Value Source: NWS Daily Summary

Daily Weather History Graph

Daily Weather History Graph

Search for Another Location

Airport:

Trip Planner

Search our weather history database for the weather conditions in past years. The results will help you decide how hot, cold, wet, or windy it might be!

Date:

Astronomy

Mar. 23, 2013 Rise Set
Actual Time 7:27 AM CDT 7:43 PM CDT
Civil Twilight 7:02 AM CDT 8:08 PM CDT
Nautical Twilight 6:33 AM CDT 8:37 PM CDT
Astronomical Twilight 6:03 AM CDT 9:07 PM CDT
Moon 4:18 PM CDT (3/23) 4:56 AM CDT (3/23)
Length of Visible Light 13h 05m
Length of Day
12h 15m
Waxing Gibbous, 85% of the Moon is Illuminated
Mar 23
Waxing Gibbous
Mar 27
Full
Apr 2
Last Quarter
Apr 10
New
Apr 18
First Quarter

Hourly Weather History & Observations

Time (CDT) Temp. Windchill Dew Point Humidity Pressure Visibility Wind Dir Wind Speed Gust Speed Precip Events Conditions
12:15 AM 42.8 °F 37.0 °F 37.4 °F 81% 29.86 in 7.0 mi ENE 10.4 mph - N/A   Unknown
12:35 AM 42.8 °F 38.6 °F 37.4 °F 81% 29.86 in 7.0 mi ENE 6.9 mph - N/A   Unknown
12:55 AM 42.8 °F 37.5 °F 37.4 °F 81% 29.85 in 7.0 mi ENE 9.2 mph - N/A   Unknown
1:15 AM 42.8 °F 38.6 °F 37.4 °F 81% 29.86 in 7.0 mi ENE 6.9 mph - N/A   Unknown
1:35 AM 42.8 °F 38.0 °F 37.4 °F 81% 29.86 in 7.0 mi ENE 8.1 mph - N/A   Unknown
1:55 AM 42.8 °F 41.1 °F 37.4 °F 81% 29.87 in 7.0 mi NE 3.5 mph - N/A   Unknown
2:15 AM 42.8 °F 38.0 °F 37.4 °F 81% 29.84 in 7.0 mi NE 8.1 mph - N/A   Unknown
2:35 AM 42.8 °F 39.3 °F 37.4 °F 81% 29.84 in 7.0 mi NE 5.8 mph - N/A   Unknown
2:55 AM 42.8 °F 38.6 °F 37.4 °F 81% 29.84 in 7.0 mi East 6.9 mph - N/A   Unknown
3:15 AM 42.8 °F 38.0 °F 39.2 °F 87% 29.84 in 5.0 mi East 8.1 mph - N/A   Mist
3:35 AM 42.8 °F 39.3 °F 39.2 °F 87% 29.83 in 5.0 mi East 5.8 mph - N/A   Mist
3:55 AM 42.8 °F 38.0 °F 39.2 °F 87% 29.84 in 5.0 mi North 8.1 mph - N/A   Mist
4:15 AM 42.8 °F 38.6 °F 39.2 °F 87% 29.82 in 5.0 mi NNE 6.9 mph - N/A   Mist
4:35 AM 42.8 °F 41.1 °F 39.2 °F 87% 29.83 in 5.0 mi East 3.5 mph - N/A   Mist
4:55 AM 42.8 °F 37.5 °F 39.2 °F 87% 29.80 in 5.0 mi East 9.2 mph - N/A   Mist
5:15 AM 42.8 °F 38.0 °F 41.0 °F 93% 29.80 in 4.0 mi ENE 8.1 mph - N/A   Mist
5:35 AM 42.8 °F 41.1 °F 41.0 °F 93% 29.84 in 4.0 mi NE 3.5 mph - N/A   Mist
5:55 AM 42.8 °F 38.0 °F 41.0 °F 93% 29.82 in 4.0 mi NE 8.1 mph - N/A   Mist
6:15 AM 41.0 °F 36.4 °F 41.0 °F 100% 29.82 in 4.0 mi East 6.9 mph - N/A   Mist
6:35 AM 41.0 °F 38.0 °F 41.0 °F 100% 29.84 in 4.0 mi East 4.6 mph - N/A   Mist
6:55 AM 41.0 °F 35.2 °F 41.0 °F 100% 29.82 in 2.0 mi ESE 9.2 mph - N/A   Mist
7:15 AM 41.0 °F 34.3 °F 41.0 °F 100% 29.78 in 2.0 mi East 11.5 mph - N/A   Mist
7:35 AM 41.0 °F 37.1 °F 41.0 °F 100% 29.83 in 2.5 mi NNE 5.8 mph - N/A   Mist
7:55 AM 41.0 °F 36.4 °F 41.0 °F 100% 29.82 in 3.0 mi ENE 6.9 mph - N/A   Mist
8:15 AM 41.0 °F 36.4 °F 41.0 °F 100% 29.84 in 4.0 mi NE 6.9 mph - N/A   Mist
8:35 AM 41.0 °F 34.3 °F 41.0 °F 100% 29.81 in 2.5 mi NE 11.5 mph - N/A   Mist
8:55 AM 42.8 °F 39.3 °F 41.0 °F 93% 29.83 in 3.0 mi NE 5.8 mph - N/A   Mist
9:15 AM 42.8 °F 37.0 °F 41.0 °F 93% 29.81 in 4.0 mi East 10.4 mph - N/A   Mist
9:35 AM 42.8 °F 41.1 °F 41.0 °F 93% 29.83 in 4.0 mi SE 3.5 mph - N/A   Mist
9:55 AM 42.8 °F 38.6 °F 41.0 °F 93% 29.83 in 4.0 mi ESE 6.9 mph - N/A   Mist
10:15 AM 42.8 °F - 41.0 °F 93% 29.85 in 4.0 mi Calm Calm - N/A   Mist
10:35 AM 42.8 °F 40.1 °F 41.0 °F 93% 29.84 in 4.0 mi ENE 4.6 mph - N/A   Mist
10:55 AM 42.8 °F - 41.0 °F 93% 29.85 in 4.0 mi Calm Calm - N/A   Mist
11:15 AM 42.8 °F 40.1 °F 41.0 °F 93% 29.84 in 4.0 mi ENE 4.6 mph - N/A   Mist
11:35 AM 42.8 °F 39.3 °F 41.0 °F 93% 29.82 in 3.0 mi NNE 5.8 mph - N/A   Mist
11:55 AM 42.8 °F 40.1 °F 41.0 °F 93% 29.84 in 5.0 mi East 4.6 mph - N/A   Mist
12:15 PM 42.8 °F 39.3 °F 41.0 °F 93% 29.82 in 5.0 mi ENE 5.8 mph - N/A   Mist
12:35 PM 42.8 °F 38.0 °F 41.0 °F 93% 29.82 in 5.0 mi North 8.1 mph - N/A   Mist
12:55 PM 42.8 °F 38.0 °F 41.0 °F 93% 29.81 in 5.0 mi North 8.1 mph - N/A Rain Light Rain
1:15 PM 42.8 °F 37.0 °F 41.0 °F 93% 29.80 in 4.0 mi North 10.4 mph - N/A Rain , Thunderstorm Light Thunderstorms and Rain
1:35 PM 42.8 °F 38.0 °F 41.0 °F 93% 29.79 in 5.0 mi NNE 8.1 mph - N/A   Mist
1:55 PM 42.8 °F 38.0 °F 41.0 °F 93% 29.79 in 5.0 mi North 8.1 mph - N/A   Mist
2:15 PM 42.8 °F 38.0 °F 41.0 °F 93% 29.78 in 5.0 mi NNE 8.1 mph - N/A   Mist
2:35 PM 42.8 °F 38.0 °F 41.0 °F 93% 29.77 in 7.0 mi North 8.1 mph - N/A   Unknown
2:55 PM 42.8 °F 39.3 °F 41.0 °F 93% 29.76 in 7.0 mi NNE 5.8 mph - N/A   Unknown
3:15 PM 42.8 °F 38.6 °F 41.0 °F 93% 29.75 in 10.0 mi NE 6.9 mph - N/A   Unknown
3:35 PM 42.8 °F 38.0 °F 41.0 °F 93% 29.74 in 10.0 mi North 8.1 mph - N/A   Unknown
3:55 PM 42.8 °F 38.6 °F 41.0 °F 93% 29.74 in 10.0 mi North 6.9 mph - N/A   Unknown
4:15 PM 42.8 °F 39.3 °F 41.0 °F 93% 29.74 in 10.0 mi North 5.8 mph - N/A   Unknown
4:35 PM 44.6 °F 41.4 °F 41.0 °F 87% 29.73 in 10.0 mi NE 5.8 mph - N/A   Unknown
4:55 PM 44.6 °F 42.2 °F 41.0 °F 87% 29.73 in 10.0 mi NNE 4.6 mph - N/A   Unknown
5:15 PM 44.6 °F 40.7 °F 41.0 °F 87% 29.73 in 10.0 mi NNE 6.9 mph - N/A   Unknown
5:35 PM 44.6 °F 40.2 °F 41.0 °F 87% 29.73 in 10.0 mi NNE 8.1 mph - N/A   Unknown
5:55 PM 44.6 °F 42.2 °F 41.0 °F 87% 29.74 in 7.0 mi North 4.6 mph - N/A   Unknown
6:15 PM 44.6 °F 43.1 °F 41.0 °F 87% 29.74 in 7.0 mi NNE 3.5 mph - N/A   Unknown
6:35 PM 44.6 °F 42.2 °F 41.0 °F 87% 29.74 in 10.0 mi NNE 4.6 mph - N/A   Unknown
6:55 PM 44.6 °F 40.7 °F 41.0 °F 87% 29.73 in 10.0 mi NE 6.9 mph - N/A   Unknown
7:15 PM 44.6 °F 40.2 °F 41.0 °F 87% 29.71 in 10.0 mi NE 8.1 mph - N/A   Unknown
7:35 PM 44.6 °F 40.2 °F 41.0 °F 87% 29.73 in 10.0 mi NE 8.1 mph - N/A   Unknown
7:55 PM 42.8 °F 37.5 °F 41.0 °F 93% 29.70 in 10.0 mi NE 9.2 mph - N/A   Unknown
8:15 PM 42.8 °F 36.6 °F 41.0 °F 93% 29.69 in 7.0 mi NE 11.5 mph 17.3 mph N/A   Unknown
8:35 PM 42.8 °F 37.5 °F 41.0 °F 93% 29.73 in 7.0 mi NNE 9.2 mph - N/A   Unknown
8:55 PM 42.8 °F 37.5 °F 41.0 °F 93% 29.76 in 7.0 mi North 9.2 mph - N/A   Unknown
9:15 PM 41.0 °F 34.3 °F 41.0 °F 100% 29.75 in 3.0 mi North 11.5 mph - N/A   Mist
9:35 PM 41.0 °F 33.5 °F 41.0 °F 100% 29.79 in 2.5 mi NNW 13.8 mph - N/A   Mist
9:55 PM 41.0 °F 33.9 °F 41.0 °F 100% 29.82 in 2.0 mi NNW 12.7 mph - N/A Rain Light Rain
10:15 PM 41.0 °F 31.9 °F 39.2 °F 93% 29.79 in 2.0 mi NNW 19.6 mph 26.5 mph N/A Rain Light Rain
10:35 PM 41.0 °F 32.8 °F 39.2 °F 93% 29.84 in 2.5 mi NW 16.1 mph - N/A Rain Light Rain
10:55 PM 41.0 °F 34.7 °F 39.2 °F 93% 29.87 in 2.5 mi NNW 10.4 mph 19.6 mph 0.01 in Rain , Thunderstorm Rain
11:15 PM 39.2 °F 30.8 °F 37.4 °F 93% 29.87 in 4.0 mi NW 15.0 mph 18.4 mph N/A   Light Drizzle
11:35 PM 37.4 °F 29.3 °F 37.4 °F 100% 29.87 in 10.0 mi NW 12.7 mph - N/A   Unknown
11:55 PM 37.4 °F 28.2 °F 37.4 °F 100% 29.88 in 10.0 mi NW 16.1 mph 24.2 mph N/A Thunderstorm Unknown